Date String (YYYY-MM-DD hh:mm:ss) UTC,Instrument flags,absolute air pressure of the measurement (hPa),sample flow rate (lpm),inlet stack bypass flow (lpm),air temperature of the measurement (°C),ambient temperature measured by the external sensor (°C),aerosol sample conditioner tube jacket temperature (°C),OPC LED temperature (°C),internal box temperature (°C),relative humidity of the measurement (%),span deviation,mass concentration of particles derived from Lorenz-Mie calculation of OPC scattering (μg/m³),mass concentration of particles derived from Lorenz-Mie calculation of OPC scattering (μg/m³),mass concentration of particles derived from Lorenz-Mie calculation of OPC scattering (μg/m³)
DateTimeUTC,F1_M11,P_M11,Q1_M11,Q2_M11,T1_M11,T2_M11,T3_M11,T4_M11,T5_M11,U1_M11,ZSPAN_M11,X0_M11,X2_M11,X1_M11
2024-01-02 02:00:00,SystemResetWarning,0831.2,5.00,000.00,025.7,024.4,000.0,034.1,027.0,11.4,0000.0,0005.36,0002.66,0002.12
2024-01-02 02:01:00,SystemResetWarning,0831.2,5.00,000.00,025.7,024.4,000.0,034.1,027.0,11.3,0000.0,0005.04,0002.61,0002.10
2024-01-02 02:02:00,SystemResetWarning,0831.2,5.01,000.00,025.7,024.4,000.0,034.1,027.0,11.3,0000.0,0004.87,0002.58,0002.09
2024-01-02 02:03:00,SystemResetWarning,0831.2,4.99,000.00,025.7,024.4,000.0,034.1,027.0,11.4,0000.0,0004.60,0002.52,0002.05
2024-01-02 02:04:00,SystemResetWarning,0831.2,4.98,000.00,025.7,024.4,000.0,034.1,027.0,11.4,0000.0,0004.55,0002.43,0002.04
2024-01-02 02:05:00,SystemResetWarning,0831.2,5.01,000.00,025.7,024.4,000.0,034.0,027.0,11.4,0000.0,0004.76,0002.41,0002.03
2024-01-02 02:06:00,SystemResetWarning,0831.2,5.01,000.00,025.7,024.4,000.0,034.0,027.0,11.4,0000.0,0004.67,0002.43,0002.05
2024-01-02 02:07:00,SystemResetWarning,0831.2,4.98,000.00,025.6,024.4,000.0,034.0,027.0,11.4,0000.0,0004.58,0002.42,0002.08
2024-01-02 02:08:00,SystemResetWarning,0831.3,5.00,000.00,025.6,024.4,000.0,034.0,027.0,11.4,0000.0,0004.18,0002.33,0002.07
2024-01-02 02:09:00,SystemResetWarning,0831.3,5.01,000.00,025.6,024.4,000.0,034.0,027.0,11.4,0000.0,0003.96,0002.29,0002.05
2024-01-02 02:10:00,SystemResetWarning,0831.2,5.01,000.00,025.6,024.4,000.0,034.0,027.0,11.4,0000.0,0003.92,0002.29,0002.08
2024-01-02 02:11:00,SystemResetWarning,0831.3,4.99,000.00,025.6,024.4,000.0,034.0,027.0,11.4,0000.0,0004.01,0002.34,0002.11
2024-01-02 02:12:00,SystemResetWarning,0831.3,4.99,000.00,025.6,024.4,000.0,034.0,027.0,11.4,0000.0,0004.16,0002.41,0002.15
2024-01-02 02:13:00,SystemResetWarning,0831.3,5.01,000.00,025.6,024.3,000.0,034.0,027.0,11.4,0000.0,0004.18,0002.42,0002.16
2024-01-02 02:14:00,SystemResetWarning,0831.3,5.01,000.00,025.6,024.3,000.0,034.0,027.0,11.4,0000.0,0004.14,0002.42,0002.16
2024-01-02 02:15:00,SystemResetWarning,0831.3,4.99,000.00,025.6,024.3,000.0,034.0,027.0,11.4,0000.0,0003.63,0002.39,0002.14
2024-01-02 02:16:00,SystemResetWarning,0831.3,4.99,000.00,025.6,024.3,000.0,034.0,027.0,11.4,0000.0,0003.23,0002.38,0002.13
2024-01-02 02:17:00,SystemResetWarning,0831.3,5.00,000.00,025.6,024.3,000.0,034.0,026.9,11.4,0000.0,0003.27,0002.36,0002.09
2024-01-02 02:18:00,SystemResetWarning,0831.3,5.02,000.00,025.6,024.3,000.0,033.9,026.9,11.3,0000.0,0003.00,0002.29,0002.04
2024-01-02 02:19:00,SystemResetWarning,0831.3,4.99,000.00,025.6,024.3,000.0,033.9,026.9,11.3,0000.0,0003.22,0002.26,0001.99
2024-01-02 02:20:00,SystemResetWarning,0831.3,4.99,000.00,025.5,024.3,000.0,033.9,026.9,11.3,0000.0,0003.41,0002.23,0001.96
2024-01-02 02:21:00,SystemResetWarning,0831.3,5.01,000.00,025.5,024.3,000.0,033.9,026.9,11.3,0000.0,0004.38,0002.18,0001.90
2024-01-02 02:22:00,SystemResetWarning,0831.3,5.01,000.00,025.5,024.3,000.0,033.9,026.9,11.3,0000.0,0004.77,0002.11,0001.85
2024-01-02 02:23:00,SystemResetWarning,0831.3,4.99,000.00,025.5,024.3,000.0,033.9,026.9,11.3,0000.0,0004.55,0002.00,0001.79
2024-01-02 02:24:00,SystemResetWarning,0831.3,4.99,000.00,025.5,024.3,000.0,033.9,026.9,11.3,0000.0,0004.49,0001.95,0001.74
2024-01-02 02:25:00,SystemResetWarning,0831.3,5.01,000.00,025.5,024.3,000.0,033.9,026.9,11.3,0000.0,0004.40,0001.90,0001.70
2024-01-02 02:26:00,SystemResetWarning,0831.3,5.02,000.00,025.5,024.2,000.0,033.9,026.8,11.3,0000.0,0004.37,0001.87,0001.68
2024-01-02 02:27:00,SystemResetWarning,0831.3,5.00,000.00,025.5,024.2,000.0,033.9,026.9,11.1,0000.0,0004.32,0001.86,0001.66
2024-01-02 02:28:00,SystemResetWarning,0831.3,4.99,000.00,025.5,024.2,000.0,033.9,026.8,10.9,0000.0,0004.18,0001.83,0001.66
2024-01-02 02:29:00,SystemResetWarning,0831.3,4.99,000.00,025.5,024.2,000.0,033.9,026.8,11.0,0000.0,0004.82,0001.79,0001.62
2024-01-02 02:30:00,SystemResetWarning,0831.3,5.00,000.00,025.5,024.2,000.0,033.9,026.8,11.0,0000.0,0004.70,0001.76,0001.60
2024-01-02 02:31:00,SystemResetWarning,0831.3,5.01,000.00,025.5,024.2,000.0,033.9,026.8,10.9,0000.0,0004.38,0001.74,0001.59
2024-01-02 02:32:00,SystemResetWarning,0831.3,5.01,000.00,025.5,024.2,000.0,033.8,026.8,10.9,0000.0,0003.93,0001.73,0001.59
2024-01-02 02:33:00,SystemResetWarning,0831.3,4.99,000.00,025.5,024.2,000.0,033.8,026.8,11.0,0000.0,0002.87,0001.69,0001.55
2024-01-02 02:34:00,SystemResetWarning,0831.3,5.00,000.00,025.5,024.2,000.0,033.8,026.8,11.0,0000.0,0002.86,0001.67,0001.53
2024-01-02 02:35:00,SystemResetWarning,0831.3,5.00,000.00,025.4,024.2,000.0,033.8,026.8,10.9,0000.0,0002.90,0001.66,0001.50
2024-01-02 02:36:00,SystemResetWarning,0831.3,4.99,000.00,025.4,024.1,000.0,033.8,026.8,10.9,0000.0,0002.90,0001.65,0001.49
2024-01-02 02:37:00,SystemResetWarning,0831.4,5.00,000.00,025.4,024.1,000.0,033.8,026.8,10.8,0000.0,0002.99,0001.68,0001.48
2024-01-02 02:38:00,SystemResetWarning,0831.4,4.99,000.00,025.4,024.1,000.0,033.8,026.8,10.8,0000.0,0003.07,0001.70,0001.47
2024-01-02 02:39:00,SystemResetWarning,0831.3,5.00,000.00,025.4,024.1,000.0,033.8,026.8,10.8,0000.0,0003.01,0001.66,0001.45
2024-01-02 02:40:00,SystemResetWarning,0831.3,5.00,000.00,025.4,024.1,000.0,033.8,026.8,10.8,0000.0,0002.32,0001.65,0001.44
2024-01-02 02:41:00,SystemResetWarning,0831.3,5.01,000.00,025.4,024.1,000.0,033.8,026.8,10.8,0000.0,0002.37,0001.65,0001.43
2024-01-02 02:42:00,SystemResetWarning,0831.3,5.01,000.00,025.4,024.1,000.0,033.8,026.7,10.7,0000.0,0002.33,0001.63,0001.41
2024-01-02 02:43:00,SystemResetWarning,0831.3,5.00,000.00,025.4,024.1,000.0,033.8,026.7,10.6,0000.0,0002.30,0001.61,0001.39
2024-01-02 02:44:00,SystemResetWarning,0831.3,4.99,000.00,025.4,024.1,000.0,033.8,026.7,10.7,0000.0,0002.17,0001.59,0001.37
2024-01-02 02:45:00,SystemResetWarning,0831.3,5.00,000.00,025.4,024.1,000.0,033.7,026.7,10.7,0000.0,0002.15,0001.58,0001.35
2024-01-02 02:46:00,SystemResetWarning,0831.3,5.01,000.00,025.4,024.1,000.0,033.7,026.7,10.7,0000.0,0002.20,0001.57,0001.34
2024-01-02 02:47:00,SystemResetWarning,0831.3,5.00,000.00,025.4,024.1,000.0,033.7,026.7,10.6,0000.0,0002.22,0001.57,0001.35
2024-01-02 02:48:00,SystemResetWarning,0831.3,4.99,000.00,025.3,024.1,000.0,033.7,026.7,10.6,0000.0,0002.15,0001.54,0001.34
2024-01-02 02:49:00,SystemResetWarning,0831.3,5.00,000.00,025.3,024.1,000.0,033.7,026.7,10.7,0000.0,0002.06,0001.50,0001.33
2024-01-02 02:50:00,SystemResetWarning,0831.3,5.01,000.00,025.3,024.1,000.0,033.7,026.7,10.7,0000.0,0002.12,0001.50,0001.33
2024-01-02 02:51:00,SystemResetWarning,0831.3,5.00,000.00,025.3,024.1,000.0,033.7,026.7,10.6,0000.0,0002.10,0001.48,0001.32
2024-01-02 02:52:00,SystemResetWarning,0831.3,5.00,000.00,025.3,024.0,000.0,033.7,026.7,10.6,0000.0,0001.97,0001.46,0001.34
2024-01-02 02:53:00,SystemResetWarning,0831.3,5.00,000.00,025.3,024.0,000.0,033.7,026.7,10.6,0000.0,0001.96,0001.45,0001.34
2024-01-02 02:54:00,SystemResetWarning,0831.3,4.99,000.00,025.3,024.0,000.0,033.7,026.7,10.6,0000.0,0002.00,0001.46,0001.34
2024-01-02 02:55:00,SystemResetWarning,0831.3,5.00,000.00,025.3,024.0,000.0,033.7,026.7,10.6,0000.0,0002.03,0001.47,0001.33
2024-01-02 02:56:00,SystemResetWarning,0831.3,5.01,000.00,025.3,024.0,000.0,033.7,026.7,10.5,0000.0,0002.03,0001.46,0001.32
2024-01-02 02:57:00,SystemResetWarning,0831.3,5.00,000.00,025.3,024.0,000.0,033.7,026.7,10.6,0000.0,0002.01,0001.46,0001.31
2024-01-02 02:58:00,SystemResetWarning,0831.3,4.99,000.00,025.3,024.0,000.0,033.7,026.7,10.6,0000.0,0001.99,0001.44,0001.28
2024-01-02 02:59:00,SystemResetWarning,0831.3,5.00,000.00,025.3,024.0,000.0,033.6,026.6,10.6,0000.0,0001.96,0001.42,0001.26
